Regional Weather Roundup
Issued by NWS Green Bay, WI

Home | Current Version | Previous Version | Graphics & Text | Print | Product List | Glossary Off
Versions: 1 2 3 4 5 6 7 8 9 10 11 12 13 14 15 16 17 18 19 20 21 22 23 24 25 26 27 28 29 30 31 32 33 34 35 36 37 38 39 40 41 42 43 44 45 46 47 48 49 50

000
ASUS43 KGRB 151210
RWRGRB

NORTH-CENTRAL AND NORTHEAST WISCONSIN REGIONAL WEATHER ROUNDUP
NATIONAL WEATHER SERVICE GREEN BAY WI
700 AM CDT MON SEP 15 2014

WIZ005-009-010>012-018-019-151300-
NORTH CENTRAL WISCONSIN

CITY           SKY/WX    TMP DP  RH WIND       PRES   REMARKS
IRONWOOD       CLEAR     37  37 100 SW3       30.11R
MANITOWISH WTR FOG       32  32 100 CALM      30.12R VSB<1/4
ARBOR VITAE    FOG       37  35  95 CALM      30.12S VSB 1/2
EAGLE RIVER    FOG       32  32 100 CALM      30.12S VSB 3/4
LAND O LAKES   FOG       32  32 100 CALM      30.13R VSB<1/4
RHINELANDER    MOCLDY    37  36  96 W3        30.13S
PHILLIPS       CLOUDY    38  38 100 CALM      30.14R
ANTIGO         CLOUDY    44  43  98 CALM      30.14S
TOMAHAWK       MOCLDY    37  37  97 CALM      30.14S
MERRILL        CLOUDY    40  40 100 CALM      30.14R
$$

WIZ013-073-151300-
NORTHEAST WISCONSIN

CITY           SKY/WX    TMP DP  RH WIND       PRES   REMARKS
IRON MOUNTAIN  PTCLDY    37  35  92 CALM      30.11S
MARINETTE      CLOUDY    48  45  87 W3        30.12R
OCONTO         CLOUDY    49  49  99 CALM      30.13R
$$

WIZ017-030-035>037-045-151300-
CENTRAL WISCONSIN

CITY           SKY/WX    TMP DP  RH WIND       PRES   REMARKS
MEDFORD        PTCLDY    42  42  99 CALM      30.14S
WAUSAU         MOCLDY    49  45  86 NW3       30.13R
MOSINEE        CLOUDY    48  48 100 CALM      30.15R
MARSHFIELD     CLOUDY    50  46  86 NW3       30.14R
WISC RAPIDS    LGT RAIN  50  48  93 SW3       30.16R
STEVENS POINT  CLOUDY    48  47  97 CALM      30.15R
WAUPACA        DRIZZLE   52  51  95 CALM      30.15R
SHAWANO        LGT RAIN  52  49  89 CALM      30.14S
CLINTONVILLE   DRIZZLE   50  48  93 CALM      30.13F
$$

WIZ038-039-048-051-151300-
FOX VALLEY

CITY           SKY/WX    TMP DP  RH WIND       PRES   REMARKS
NWS GREEN BAY  LGT RAIN  51  50  96 NW5       30.14R
APPLETON       LGT RAIN  52  48  87 VRB5      30.15R
OSHKOSH        LGT RAIN  53  51  93 W3        30.14R
FOND DU LAC    LGT RAIN  52  49  89 MISG      30.14S
$$

WIZ022-050-052-151300-
EAST CENTRAL WISCONSIN

CITY           SKY/WX    TMP DP  RH WIND       PRES   REMARKS
STURGEON BAY   CLOUDY    52  46  82 CALM      30.13S
MANITOWOC      LGT RAIN  53  52  96 CALM      30.14S
SHEBOYGAN      LGT RAIN  52  50  93 CALM      30.13S
$$

LMZ563-521-522-541>543-151300-
LAKESHORE

STATION/POSITION TIME  TEMP    WIND        PRES    VSBY  WAVE
                       AIR SEA DIR/SP/G                  HT/PER
                 (UTC) (F)     (DEG/KT/KT) (MB)    (MI)  (FT/S)
SHEBOYGAN LKSHOR 1200   55 51  260/  3/  4 1020.8R
KEWAUNEE LKSHORE 1200   52     310/  3/  3 1019.5R
TWO RIVERS CG    1200   53 61              1020.9      6   0
NORTHPORT PIER   1200   54     320/  5/  8 1020.0R
N MID LAKE BUOY  1200   56 58  320/  8/ 10 1019.9R         3/ 6
S GREEN BAY BUOY 1200   55     VRB  6/  6  1021.2R
STURGEON BAY CG  1200   51 54  290/  3     1020.2      6   1
CHAMBERS ISLAND  1200   52     280/  4/  5 1020.3S
MENOMINEE LKSHOR 1200   51     270/  3/  5 1020.4F
$$


USA.gov is the U.S. government's official web portal to all federal, state and local government web resources and services.